Regional Weather Roundup
Issued by NWS Upton, NY

Current Version | Previous Version | Graphics & Text | Print | Product List | Glossary Off
Versions: 1 2 3 4 5 6 7 8 9 10 11 12 13 14 15 16 17 18 19 20 21 22 23 24 25 26 27 28 29 30 31 32 33 34 35 36 37 38 39 40 41 42 43 44 45 46 47 48 49 50

000
ASUS41 KOKX 262104
RWROKX

REGIONAL WEATHER ROUNDUP
NATIONAL WEATHER SERVICE NEW YORK NY
500 PM EDT TUE JUL 26 2016

NOTE: "FAIR" INDICATES FEW OR NO CLOUDS BELOW 12,000 FEET WITH NO
SIGNIFICANT WEATHER AND/OR OBSTRUCTIONS TO VISIBILITY.

NYZ071-072-176-178-NJZ106-104-262200-
NEW YORK CITY METRO AREA

CITY           SKY/WX    TMP DP  RH WIND       PRES   REMARKS
Central Park   MOSUNNY   89  62  40 W9G17     29.89S
LaGuardia APRT PTSUNNY   90  64  42 W8        29.85S HX  91
Kennedy INTL   PTSUNNY   93  60  33 NW15      29.86S HX  93
Newark/Liberty PTSUNNY   92  61  35 W10G23    29.85F HX  92
Bronx Bot Gard   N/A     88  63  42 NW3       29.88S
Wall St Helipt PTCLDY    91  64  40 CALM      29.86F HX  93
Teterboro      PTSUNNY   91  61  36 W12G17    29.85S HX  91
$$

NYZ177-179-078>081-262200-
LONG ISLAND NEW YORK

CITY           SKY/WX    TMP DP  RH WIND       PRES   REMARKS
Farmingdale    MOSUNNY   91  62  37 MISG      29.85F HX  91
MacArthur/ISP  MOSUNNY   90  61  37 NW14      29.85S HX  90
Shirley        MOSUNNY   90  63  40 W14       29.86S HX  91
Riverhead      NOT AVBL
Westhampton    MOSUNNY   91  61  36 NW16      29.86S HX  91
Southhampton     N/A     90  66  45 W10       29.80S HX  92
Bridgehampton    N/A     91  68  46 W3        29.83S HX  95
East Hampton   FAIR      88  65  47 W13G21    29.83S
Montauk          N/A     87  67  51 W10       29.83F HX  90
$$

NYZ052-065-067-262200-
HUDSON VALLEY

CITY           SKY/WX    TMP DP  RH WIND       PRES   REMARKS
White Plains   SUNNY     88  61  40 NW14      29.87F
Newburgh       MOSUNNY   88  64  45 W14       29.90F
Montgomery     SUNNY     89  64  43 NW12      29.89S HX  90
Poughkeepsie   SUNNY     90  62  39 N9        29.86F HX  90
Albany         PTSUNNY   85  62  46 W13G28    29.88S
$$

NJZ001-105-106-008-010-013-015-019>022-104-262200-
NEW JERSEY

CITY           SKY/WX    TMP DP  RH WIND       PRES   REMARKS
Newark/Liberty PTSUNNY   92  61  35 W10G23    29.85F HX  92
Teterboro      PTSUNNY   91  61  36 W12G17    29.85S HX  91
Caldwell       MOSUNNY   90  63  40 NW9       29.87F HX  91
Morristown     MOSUNNY   91  63  38 N12       29.87F HX  92
Somerville     SUNNY     90  66  45 VRB3      29.85F HX  92
Linden         FAIR      90  64  41 NW10G17   29.88F HX  91
Sussex         SUNNY     87  62  43 VRB5      29.90F
Abdover          N/A     88  63  43 VRB3      29.90F
Trenton        MOSUNNY   90  64  42 W7        29.88F HX  91
Millville      CLOUDY    91  70  49 W10       29.90F HX  96
Atlantic City  CLOUDY    90  67  46 W10       29.89F HX  93
Wrightstown    NOT AVBL
Toms River     MOSUNNY   91  66  43 W10       29.89S HX  93
Belmar         MOSUNNY   89  68  49 W10       29.89F HX  93
$$

PAZ047>061-062-071-262200-
EASTERN PENNSYLVANIA

CITY           SKY/WX    TMP DP  RH WIND       PRES   REMARKS
Philadelphia   CLOUDY    91  66  43 W10       29.89F HX  93
Allentown      SUNNY     89  66  46 W10       29.90F HX  91
Scranton       SUNNY     89  58  34 N17       29.93F
$$

CTZ002-004>006-009-010-012-RIZ004-006-007-MAZ004-011-015-262200-
SOUTHERN NEW ENGLAND
 IN CT

CITY           SKY/WX    TMP DP  RH WIND       PRES   REMARKS
Bradley INTL   MOSUNNY   89  57  33 N14       29.82F
Hartford       MOSUNNY   93  58  30 NW14G23   29.82F HX  92
Danbury        SUNNY     86  61  42 N8        29.89S
Wtrbury/Oxford MOSUNNY   84  59  42 NW10G17   29.91S
Bridgeport     PTSUNNY   91  62  37 NW13G18   29.84S HX  91
Meriden        MOSUNNY   91  59  33 W15G23    29.84S HX  90
New Haven      MOSUNNY   88  62  41 NW10G18   29.84S
Chester        FAIR      88  61  40 NW8G17    29.85S
Groton         MOSUNNY   87  68  52 W8        29.80S HX  90
Wilimantic     NOT AVBL

 IN RI

CITY           SKY/WX    TMP DP  RH WIND       PRES   REMARKS
Providence     MOSUNNY   91  59  33 W13       29.80S HX  90
Block Island   SUNNY     82  68  62 W14       29.83R
Westerly       SUNNY     86  64  47 SW10      29.82S
 IN MA

CITY           SKY/WX    TMP DP  RH WIND       PRES   REMARKS
Boston         MOSUNNY   91  58  32 NW17G23   29.77S HX  90
Worchester     PTSUNNY   86  55  34 NW14      29.85S
Westfield      MOSUNNY   90  58  33 NW17      29.83F
Provincetown   MOSUNNY   88  63  43 E5        29.79S
Nantucket      SUNNY     78  68  71 W17       29.80S
$$

ANZ330-335-338-340-345-350-353-355-262200-
COASTAL MARINE OBSERVATIONS


STATION/POSITION TIME  SKY/WX   TEMP    WIND        PRES    VSBY  WAVE
                                AIR SEA DIR/SP/G                  HT/PER
                 (UTC)          (F)     (DEG/KT/KT) (MB)    (MI)  (FT/S)
NY HARB ENTRANCE 1950            80 76  240/  4/  6 1011.3          2/ 7
20S FIRE ISLAND  1950            78 76  240/ 12/ 14 1011.0          2/ 7
GREAT SOUTH BAY  2000            86 82  290/ 12/ 16   N/A
23 SSW MONTAUK P 1950            75 71  240/ 12/ 12 1011.0          2/ 5
15 E BARNEGAT LI 2022               78                N/A           3/ 7
HUDSON CANYON    1950            78 78              1012.0          3/ 7
KINGS POINT      2000            83 72              1010.9
EXECUTION ROCKS  2000            85     320/  8/ 10   N/A
CENTRAL LI SOUND 2000            78 74  250/ 10/ 12   N/A           1/ 3
EASTERN LI SOUND 2000            75 68  240/ 14/ 17   N/A
ROBBINS REEF     2006            88     290/ 17/ 20 1010.6
$$


>>>>>>>>>>>>>>>>>>>>>>>>>>>> KEY <<<<<<<<<<<<<<<<<<<<<<<<<<<
>                                                          <
>     SKY/WX - Sky Condition/Present Weather               <
>     TMP    - Temperature in Fahrenheit                   <
>     DP     - Dew Point in Fahrenheit                     <
>     RH     - Relative Humidity in Percent                <
>     WIND   - Direction (from) and Speed in MPH           <
>     PRES   - Mean Sea Level Pressure (inches of Hg)      <
>     WCI    - Wind Chill Index                            <
>     VSB    - VISIBILITY IN MILES                         <
>     HX     - HEAT INDEX                                  <
>     TC     - TEMPERATURE IN CELSIUS                      <
>     VRB    - VARIABLE WIND DIRECTION                     <
>                                                          <
>>>>>>>>>>>>>>>>>>>>>>>>>>>> KEY <<<<<<<<<<<<<<<<<<<<<<<<<<<



USA.gov is the U.S. government's official web portal to all federal, state and local government web resources and services.